Location: Lewisville
(33.0462°N, 96.9942°W)
Time: 23:21:44
(UTC-06:00)

Envisat - Pass Details

Date: 24 September 2019
Orbit: 764 x 766 km, 98.1° (Epoch: 18 November)

Event Time Altitude Azimuth Distance (km) Brightness Sun altitude
Rises 20:11:23 0° 183° (S) 3,215 6.2 -11.1°
Reaches altitude 10° 20:13:46 10° 190° (S) 2,293 5.5 -11.6°
Maximum altitude 20:18:34 43° 261° (W) 1,064 4.3 -12.6°
Drops below altitude 10° 20:23:24 10° 333° (NNW) 2,307 6.0 -13.6°
Sets 20:25:50 0° 340° (NNW) 3,237 6.7 -14.1°
